Airfield :
LOGIN :

Register | Disclaimer

   EN    FR    IT 

 










Legend :    VFR   Marginal VFR   IFR   Intensive IFR   Very Intensive IFR
Visi :
Ceiling :
>= 8 km
>= 3000ft
5 to 8 km
1000 to 3000 ft
1500m to 5 km
500 to 1000 ft
800 to 1500m
200 to 500 ft
< 800m
< 200 ft
Symbols :   Thunderstorms  Fog  Heavy snow  Heavy precipitations  Wind > 20 kt
SIGMETs :     Misc.  Thunderstorms  Icing  Turbulence  Mountain Waves  Volcanic Ashes






- Airport Elevation : 325 ft
- IATA code : POX


LFPT - Pontoise

CURRENT METAR :
  • 291030Z AUTO 24011KT CAVOK 13/09 Q1020

EXPIRED METARs :
  • 291000Z AUTO 24008KT CAVOK 12/09 Q1020
  • 290930Z AUTO 25008KT 220V280 CAVOK 12/09 Q1020
  • 290900Z AUTO 24009KT CAVOK 11/09 Q1020
  • 290830Z AUTO 24009KT 9999 FEW049 11/09 Q1019
  • 290800Z AUTO 23007KT 9999 BKN040 BKN046 11/09 Q1019
  • 290730Z AUTO 23008KT 9999 FEW042 OVC054 11/09 Q1019

TAF N/A
ATIS : +33 1 30 30 52 08



MET'MAP, your aeronautical weather chart ! - Copyright ORBIFLY December 2007 - Disclaimer

ORBIFLY MET'MAP TEAM :

Programming & Development : Alexandra Zaïnal
Concept & original design : Baudouin d'Aumeries
Assistance for programming : Marc-Olivier Méhu
Technical & hardware support : Manuel Goepfert

Contact : metmap@orbifly.com




SOURCES & CREDITS :

   NOAA